Home > Weather > Rodez > Past weeks

Flag for France Weather for the Past 2 Weeks in Rodez, Midi-Pyrénées, France

Now
48 °F

Sunny.


Feels Like: 48 °F
Forecast: 32 / 47 °F
Wind: 1 mph from North

Location: Rodez Airport

Current Time: Apr 29, 2016 at 10:34:52 AM

Latest Report: Apr 29, 2016 at 10:00 AM


Visibility: 10 mi

Pressure: 30.09 "Hg (27.84 "Hg at 642m altitude)

Humidity: 54%

Dew Point: 32 °F

Location of RodezLocation

Historic Weather in Rodez — Graph

°F

Rodez Temperature Yesterday

Maximum temperature yesterday: 55 °F (at 5:30 PM)
Minimum temperature yesterday: 32 °F (at 7:30 AM)
Average temperature yesterday: 45 °F

High & Low Weather Summary for the Past Weeks

 TemperatureHumidityPressure
High70 °F (Apr 19, 5:30 PM)100% (Apr 16, 1:30 AM)30.24 "Hg (Apr 16, 1:30 AM)
Low30 °F (Apr 29, 6:00 AM)21% (Apr 19, 5:00 PM)29.62 "Hg (Apr 16, 7:00 PM)
Average50 °F71%29.98 "Hg
* Reported Apr 14 9:00 AM — Apr 29 9:00 AM, Rodez, Weather by CustomWeather, © 2016

Note: Actual official high and low records may vary slightly from our data, if they occured in-between our weather recording intervals... More about our weather records

Advertising

Rodez Weather History for the Previous 24 Hours

Scroll right to see more
 ConditionsComfort  
Time TempWeatherWind HumidityBarometerVisibility
9:00 AM
Fri, Apr 29
43 °FSunny.3 mph71%30.09 "Hg10 mi
8:30 AM39 °FSunny.3 mph75%30.09 "Hg10 mi
8:00 AM36 °FSunny.2 mph81%30.07 "Hg10 mi
7:00 AM30 °FClear.2 mph93%30.07 "Hg10 mi
6:30 AM30 °FClear.No wind86%30.07 "Hg10 mi
6:00 AM30 °FClear.2 mph93%30.07 "Hg10 mi
5:30 AM32 °FClear.2 mph87%30.07 "Hg10 mi
4:30 AM32 °FClear.1 mph93%30.07 "Hg10 mi
3:30 AM37 °FClear.1 mph75%30.07 "Hg10 mi
3:00 AM34 °FClear.2 mph87%30.07 "Hg10 mi
2:30 AM34 °FClear.3 mph87%30.07 "Hg10 mi
2:00 AM36 °FClear.3 mph81%30.07 "Hg10 mi
1:00 AM36 °FClear.2 mph81%30.07 "Hg10 mi
12:30 AM37 °FClear.2 mph81%30.07 "Hg10 mi
12:00 AM37 °FClear.5 mph75%30.07 "Hg10 mi
11:30 PM
Thu, Apr 28
37 °FClear.6 mph81%30.07 "Hg10 mi
11:00 PM39 °FClear.6 mph70%30.07 "Hg10 mi
10:30 PM41 °FClear.8 mph70%30.04 "Hg10 mi
10:00 PM43 °FClear.9 mph66%30.04 "Hg10 mi
9:30 PM43 °FSunny.10 mph66%30.04 "Hg10 mi
9:00 PM45 °FSunny.12 mph57%30.01 "Hg10 mi
8:30 PM46 °FSunny.12 mph57%30.01 "Hg10 mi
8:00 PM50 °FSunny.13 mph50%29.98 "Hg10 mi
7:30 PM52 °FSunny.13 mph47%29.98 "Hg10 mi
7:00 PM52 °FSunny.15 mph44%29.98 "Hg10 mi
6:30 PM54 °FPassing clouds.14 mph44%29.98 "HgN/A
6:00 PM54 °FPassing clouds.14 mph44%29.98 "HgN/A
5:30 PM55 °FPassing clouds.13 mph47%29.98 "HgN/A
5:00 PM54 °FPassing clouds.13 mph44%29.98 "HgN/A
4:30 PM54 °FSunny.14 mph44%29.98 "Hg10 mi
4:00 PM54 °FPassing clouds.12 mph44%29.98 "HgN/A
3:30 PM54 °FPassing clouds.8 mph44%29.98 "HgN/A
3:00 PM54 °FPassing clouds.8 mph47%29.98 "HgN/A
2:30 PM54 °FPassing clouds.12 mph47%29.98 "HgN/A
2:00 PM52 °FPassing clouds.12 mph47%29.98 "HgN/A
1:30 PM52 °FPassing clouds.10 mph44%29.98 "HgN/A
1:00 PM50 °FPassing clouds.8 mph47%29.98 "HgN/A
12:30 PM50 °FPassing clouds.7 mph50%29.98 "HgN/A
12:00 PM50 °FPassing clouds.8 mph43%29.98 "HgN/A
11:30 AM48 °FPassing clouds.8 mph43%29.98 "HgN/A
11:00 AM48 °FSunny.13 mph46%29.98 "Hg10 mi
10:00 AM46 °FPassing clouds.7 mph50%29.98 "HgN/A
Weather by CustomWeather, © 2016

See weather overviewHow to use our weather pages